Location: Griffin Ranch
(33.6186°N, 110.6622°W)
Time: 21:03:54
(UTC-07:00)

Daily predictions for brighter satellites

Satellite Brightness Start Highest point End
(mag) Time Altitude Azimuth Time Altitude Azimuth Time Altitude Azimuth
ATLAS 5 CENTAUR R/B 2.6 19:45:25 10° NNW 19:51:29 64° ENE 19:57:55 10° SE
OAO 3 Rocket 4.0 19:47:29 10° SW 19:51:57 34° SSE 19:56:26 10° E
ISS -3.4 19:49:58 10° SW 19:53:13 85° SE 19:56:28 10° NE
Resurs 01 Rocket 3.0 19:49:09 10° S 19:53:16 40° W 19:57:26 10° NNW
Atlas Centaur 2 1.4 19:50:37 10° W 19:54:17 49° S 19:57:42 10° ESE
Cosmos 1408 4.5 19:55:53 10° ESE 19:57:46 14° E 19:59:38 10° ENE
Sich 1 Rocket 4.4 19:54:46 10° SSE 19:58:52 33° E 20:02:59 10° NNE
CENTAUR R/B 3.2 19:56:18 10° NNW 20:04:21 88° WSW 20:12:42 10° SSE
Centaur AC-119 3.1 20:03:12 10° WSW 20:05:41 19° S 20:07:01 12° SE
Coronas F rocket 1.9 20:03:12 10° SSW 20:05:48 58° W 20:08:25 10° N
Cosmos 1825 3.6 20:05:53 10° SE 20:08:44 20° E 20:11:35 10° NE
Cosmos 2084 3.1 20:08:26 10° SSW 20:12:20 77° ESE 20:16:09 10° NE
COSMOS 2406 3.2 20:08:25 10° NNW 20:14:11 84° ENE 20:19:52 10° SSE
Cosmos 2278 Rocket 2.5 20:09:34 10° S 20:14:57 46° ESE 20:20:20 10° NE
Cosmos 1844 Rocket 2.9 20:09:30 10° SSW 20:15:09 79° WNW 20:20:49 10° NNE
Meteosat 1 Rocket2 4.1 20:12:45 10° WSW 20:17:44 53° S 20:24:32 13° ESE
Cosmos 1844 3.7 20:14:41 10° SSW 20:20:26 84° ESE 20:26:15 10° NNE
FENGYUN 3A 4.0 20:16:02 10° S 20:21:23 68° WSW 20:26:45 10° NNW
Meteor 2-10 Rocket 3.9 20:16:07 10° N 20:21:54 79° W 20:27:28 10° S
Cosmos 1908 Rocket 3.8 20:18:07 10° SSE 20:22:19 48° E 20:26:35 10° NNE
Abrixas 3.9 20:20:16 10° S 20:22:32 19° SE 20:22:33 19° SE
Cosmos 1733 Rocket 3.5 20:18:56 10° SSW 20:23:18 65° W 20:27:40 10° N
PSLV R/B 3.4 20:19:55 10° WNW 20:23:19 68° SSW 20:25:34 20° SE
COS B Rocket 4.3 20:20:45 10° NNE 20:23:58 25° E 20:25:28 19° ESE
Cosmos 1378 Rocket 4.4 20:23:21 10° NNE 20:27:11 30° E 20:29:28 19° SE
Cosmos 2341 Rocket 4.4 20:21:43 10° SSE 20:27:36 43° E 20:33:27 10° NNE
CZ-4 DEB 2.7 20:29:20 12° S 20:32:10 83° W 20:35:20 10° NNW
SL-27 R/B 2.7 20:29:43 10° NNW 20:33:20 71° WSW 20:36:19 14° S
GPS 2-05 Rocket1 3.2 20:34:03 10° W 20:37:46 68° N 20:40:33 16° ENE
deb Chang Zheng 4 3.6 20:33:48 10° NNE 20:38:11 61° E 20:42:33 10° S
Cosmos 2082 Rocket 4.1 20:35:09 10° NNE 20:38:23 15° NE 20:40:49 12° E
ERBS 4.3 20:41:33 10° WNW 20:44:22 23° WSW 20:46:41 13° S
Nimbus 7 Rocket 4.4 20:38:31 10° NNE 20:44:26 63° ESE 20:50:21 10° S
Intercosmos 25 4.1 20:47:33 27° E 20:47:33 27° E 20:50:19 10° NE
Intelsat 3F5 C 4.4 20:45:13 10° WSW 20:48:23 44° S 20:48:48 41° SSE
Cosmos 1862 3.3 20:45:20 10° S 20:49:24 89° ESE 20:53:29 10° N
Cosmos 2297 3.9 20:45:54 10° S 20:51:18 46° ESE 20:56:45 10° NNE
H-2A R/B 2.1 20:49:42 27° SSE 20:51:54 62° ENE 20:56:05 10° N
Cosmos 2154 Rocket 4.0 20:46:08 10° S 20:52:23 88° W 20:58:36 10° N
Envisat 3.0 20:49:15 22° SSE 20:52:31 69° ENE 20:57:34 10° N
SEDSat Delta rocket 3.2 20:51:52 10° WSW 20:56:02 43° SSE 20:56:52 37° SE
COSMOS 2487 2.8 20:53:25 10° N 20:56:55 47° ENE 20:57:31 42° ESE
Cosmos 1606 2.8 20:54:03 10° N 20:57:59 81° W 21:00:04 27° S
EO 1 Delta rocket 4.0 20:53:35 10° N 20:59:20 90° N 21:04:05 10° S
APEX 3.2 20:58:14 19° S 21:00:48 71° ESE 21:05:28 10° NNE
OAO 1 Rocket 4.3 20:56:11 10° WSW 21:01:30 84° SSE 21:05:03 21° E
Cosmos 1420 Rocket 3.9 20:59:01 10° SSW 21:04:16 85° ESE 21:09:31 10° NNE
CZ-4 SHROUD 4.3 21:05:12 32° NE 21:05:12 32° NE 21:07:31 10° N
PSLV R/B 4.2 21:05:42 32° NE 21:05:42 32° NE 21:07:48 10° N
H-2A R/B 4.0 21:01:17 10° WSW 21:05:53 60° S 21:38:22 10° ESE
ERS-1 Rocket 3.6 21:02:48 14° S 21:06:58 54° W 21:11:55 10° NNW
MetOp-B 4.3 21:06:48 35° SE 21:08:52 56° ENE 21:14:06 10° N
Cosmos 407 Rocket 4.5 21:10:17 10° NNW 21:15:16 44° WSW 21:18:59 17° SSW
Okean 3 3.4 21:12:14 10° N 21:16:32 85° W 21:17:46 46° S
Meteor 1-27 Rocket 4.1 21:11:06 10° NNW 21:16:32 60° W 21:20:23 19° S
Cosmos 1140 Rocket 3.4 21:13:07 10° N 21:18:15 67° ENE 21:19:37 47° SE
Cosmos 2366 rocket 4.3 21:16:58 37° SE 21:18:48 47° E 21:24:49 10° NNE
H-2A R/B 3.5 21:22:52 23° ENE 21:23:12 23° ENE 21:27:18 10° NNE
Okean 2 Rocket 3.4 21:22:30 25° SSW 21:24:56 64° W 21:29:19 10° N
SL-08 RB Rocket 4.4 21:27:36 38° ENE 21:27:36 38° ENE 21:31:49 10° N
ARGOS 3.4 21:28:02 46° ESE 21:28:55 51° ENE 21:34:06 10° N
CZ-4B R/B 3.2 21:24:26 10° NNE 21:29:20 71° ESE 21:30:09 58° SSE
YAOGAN 6 2.8 21:30:30 64° N 21:30:30 64° N 21:33:32 10° N
ISS 0.1 21:28:52 10° NW 21:30:02 11° NNW 21:31:12 10° N
Cosmos 1939 Rocket 4.5 21:28:45 21° SW 21:30:29 29° W 21:33:56 10° NW
Timation 1 Rocket 4.5 21:29:59 47° SE 21:30:43 50° ESE 21:36:29 10° NNE
USA 234 3.7 21:25:04 10° ENE 21:30:12 38° ESE 21:30:12 38° ESE
Cosmos 1242 Rocket 2.7 21:28:53 10° N 21:32:16 73° NNW 21:32:16 73° NNW
Terra 3.4 21:35:40 22° ENE 21:35:40 22° ENE 21:38:44 10° NNE
OAO 3 Rocket 3.1 21:30:20 10° WSW 21:35:19 87° SSE 21:36:05 64° E
SPOT 1/Viking Rocket 3.4 21:37:46 62° SE 21:38:33 74° ENE 21:43:45 10° N
Atlas Centaur 2 3.3 21:39:39 10° WSW 21:40:38 15° WSW 21:40:38 15° WSW
Meteor 1-20 Rocket 4.5 21:43:07 48° E 21:43:07 48° E 21:48:06 10° NNE
Cosmos 1238 Rocket 4.5 21:42:40 10° NNW 21:45:43 27° W 21:46:41 25° WSW
SPOT 5 3.7 21:43:46 34° SSW 21:45:44 50° W 21:50:56 10° NNW
Cosmos 2218 Rocket 4.0 21:45:05 37° S 21:47:51 84° W 21:54:17 10° N
Cosmos 1975 Rocket 4.3 21:50:26 10° NNW 21:54:22 34° W 21:55:11 32° WSW
Meteor 1-25 Rocket 4.1 21:57:31 72° SSE 21:58:06 82° E 22:03:57 10° N
Cosmos 1833 Rocket 2.8 21:53:40 10° NNW 21:59:10 57° ENE 21:59:10 57° ENE
Lacrosse 5 4.0 22:04:09 16° NE 22:04:09 16° NE 22:05:07 10° NE
Cosmos 1850 Rocket 4.2 21:54:51 10° NNW 22:00:08 65° WSW 22:00:34 62° SW
Meteor 2-19 Rocket 4.3 22:00:40 71° SSE 22:01:15 78° E 22:07:22 10° N
DNEPR-1 R/B 4.2 21:59:05 10° NW 22:03:31 55° W 22:03:31 55° W
Cosmos 1727 Rocket 3.8 22:00:31 10° N 22:06:43 81° E 22:07:08 76° SE
Cosmos 1536 Rocket 4.2 22:02:55 10° N 22:06:20 52° N 22:06:20 52° N
Meteor 2-8 Rocket 4.3 22:10:18 10° N 22:16:29 84° W 22:16:47 80° SSW
USA 229 DEB 3.6 22:13:10 10° NNW 22:20:19 82° ENE 22:20:58 74° ESE
USA 229 3.6 22:13:16 10° NNW 22:20:26 81° ENE 22:21:04 74° ESE
Meteor 1-18 Rocket 4.3 22:15:11 10° NNW 22:21:06 76° W 22:21:09 76° WSW
Cosmos 2082 Rocket 2.4 22:17:19 10° NNW 22:22:40 66° W 22:22:40 66° W
Cosmos 1331 Rocket 4.4 22:24:04 60° NNW 22:24:04 60° NNW 22:28:33 10° N
Cosmos 1339 Rocket 4.4 22:23:21 10° N 22:29:29 80° W 22:29:29 80° W
DMSP B5D2-2 4.5 22:24:39 10° N 22:28:54 59° N 22:28:54 59° N
Meteor 1-11 Rocket 4.4 22:49:24 52° NNE 22:49:24 52° NNE 22:53:42 10° N
H-2A R/B 3.4 23:03:30 34° WNW 23:03:30 34° WNW 23:07:17 10° NNW
Cosmos 2369 Rocket 3.5 23:08:35 33° NNE 23:08:35 33° NNE 23:11:37 10° NNE
NOSS 3-1 (C) 4.1 23:00:42 10° NNW 23:08:25 68° ENE 23:08:26 68° ENE
Terra 3.9 23:14:33 23° WNW 23:14:33 23° WNW 23:16:50 10° NW
USA 234 4.0 23:07:52 10° NNE 23:14:05 49° NW 23:17:23 27° W
Cosmos 1943 Rocket 4.1 23:41:12 23° NNE 23:41:12 23° NNE 23:43:14 10° NNE
Lacrosse 5 4.1 23:43:14 21° NW 23:43:24 21° NW 23:47:17 10° NNE
